Regional Weather Roundup
Issued by NWS

Home | Current Version | Previous Version | Text Only | Print | Product List | Glossary On
Versions: 1 2 3 4 5 6 7 8 9 10 11 12 13 14 15 16 17 18 19 20 21 22 23 24 25 26 27 28 29 30 31 32 33 34 35 36 37 38 39 40 41 42 43 44 45 46 47 48 49 50
000
ASCA42 TJSJ 302211
RWRPR
PUERTO RICO/U.S. VIRGIN ISLANDS HOURLY WEATHER ROUNDUP
NATIONAL WEATHER SERVICE SAN JUAN PR
600 PM AST TUE SEP 30 2014

PRZ001-004-302300-
PUERTO RICO

CITY           SKY/WX    TMP DP  RH WIND       PRES   REMARKS
SAN JUAN LMM   PTCLDY    88  75  66 S6        29.94S HX  97
AGUADILLA      PTCLDY    82  73  74 E6        29.96S
CEIBA          CLEAR     84  75  74 S8        29.98S HX  92
$$

PRZ006-007-302300-
U.S. VIRGIN ISLANDS

CITY           SKY/WX    TMP DP  RH WIND       PRES   REMARKS
$$

HOURLY WEATHER ROUNDUP FOR THE NEWS MEDIA

CITY           SKY/WX    TMP DP  RH WIND       PRES   REMARKS
MIAMI          CLOUDY    86  75  69 VRB7      29.84S THUNDER HX  95
ORLANDO        CLOUDY    78  74  87 N3        29.83S
NEW YORK       MOCLDY    67  59  75 NE6       29.94S
NEWARK         MOCLDY    68  58  70 E7        29.93S
CHICAGO        CLOUDY    55  46  71 N7        30.01R
HARTFORD       CLOUDY    57  55  93 N8        29.98R
BOSTON         LGT RAIN  56  54  93 N9        30.02R
DALLAS         PTSUNNY   88  64  44 SE12      29.76F
PHILADELPHIA   MOCLDY    73  58  59 E14       29.89R



USA.gov is the U.S. government's official web portal to all federal, state and local government web resources and services.